Regional Weather Roundup
Issued by NWS Upton, NY

Current Version | Previous Version | Graphics & Text | Print | Product List | Glossary Off
Versions: 1 2 3 4 5 6 7 8 9 10 11 12 13 14 15 16 17 18 19 20 21 22 23 24 25 26 27 28 29 30 31 32 33 34 35 36 37 38 39 40 41 42 43 44 45 46 47 48 49 50

867
ASUS41 KOKX 212205
RWROKX

Regional Weather Roundup
National Weather Service New York NY
600 PM EDT SAT APR 21 2018

Note: "FAIR" indicates few or no clouds below 12,000 feet with no
significant weather and/or obstructions to visibility.

NYZ071-072-176-178-NJZ106-104-212300-
New York City Metro Area

CITY           SKY/WX    TMP DP  RH WIND       PRES   REMARKS
Central Park   FAIR      61  17  18 NW6       30.28S
Bronx Bot Gard   N/A     61  21  21 W10       30.27
Bronx Lehman C   N/A     59  21  23 NW7         N/A
LaGuardia Arpt PTSUNNY   61  22  22 N13       30.25F
Queens College   N/A     54  32  43 S12         N/A
Kennedy Intl   PTSUNNY   50  35  56 S18       30.28S
Breezy Point     N/A     46 N/A N/A S15G21      N/A
Brooklyn Coll    N/A     54  32  43 SE12        N/A
Staten Island    N/A     61  23  23 NW12        N/A
Newark/Liberty PTSUNNY   62  33  33 W16       30.26S
Teterboro      FAIR      61  21  21 NW12G22   30.25S
$$

NYZ177-179-078>081-212300-
Long Island New York

CITY           SKY/WX    TMP DP  RH WIND       PRES   REMARKS
Jones Beach      N/A     48 N/A N/A SW12G18     N/A
Wantagh          N/A     50  36  57 SW10        N/A
Hempstead        N/A     52  34  50 S5        30.29
Matinecock Pt    N/A     55 N/A N/A NW9         N/A
Farmingdale    FAIR      53  33  46 SW16      30.26S
MacArthur/ISP  PTSUNNY   54  34  46 SW14      30.25S
Stony Brook      N/A     57  25  28 NW8         N/A
Shirley        FAIR      52  35  52 S14       30.26S
Mt Sinai Harb    N/A     59 N/A N/A W3G9        N/A
Westhampton    FAIR      52  31  44 SW12      30.27S
East Hampton   FAIR      53  31  43 SW9       30.23S
Southold         N/A     57  28  33 W6          N/A
Montauk          N/A     55  33  43 SW7       30.24S
$$

NYZ052-065-067-212300-
Hudson Valley

CITY           SKY/WX    TMP DP  RH WIND       PRES   REMARKS
White Plains   FAIR      58  19  22 NW13      30.24S
Larchmont Harb   N/A     57 N/A N/A W12         N/A
Croton On Huds   N/A     59 N/A N/A W13G18      N/A
Somers           N/A     57  19  23 W8          N/A
Brewster         N/A     57  18  21 N12         N/A
Newburgh       SUNNY     57  19  23 NW12G21   30.26S
Montgomery     FAIR      58  19  22 N14       30.24S
Otisville        N/A     57  21  24 NW5         N/A
Warwick          N/A     57  23  26 NW12G23     N/A
Suffern          N/A     57  21  24 W8          N/A
Poughkeepsie   FAIR      59  16  18 NW14G21   30.24S
Albany         FAIR      57  16  20 NW17G25   30.26R
$$

NJZ001-105-106-008-010-013-015-019>022-104-212300-
New Jersey

CITY           SKY/WX    TMP DP  RH WIND       PRES   REMARKS
Newark/Liberty PTSUNNY   62  33  33 W16       30.26S
Teterboro      FAIR      61  21  21 NW12G22   30.25S
Caldwell       FAIR      60  18  19 NW10      30.27S
Somerville     FAIR      61  21  21 W9G23     30.25F
Linden         FAIR      61  22  23 NW9G16    30.27S
Perth Amboy      N/A     59 N/A N/A NW10G16     N/A
Sussex         FAIR      59  19  21 N13G18    30.28S
Andover          N/A     58  19  22 NW8       30.28R
Trenton        FAIR      60  26  27 W8        30.29S
Millville      FAIR      58  27  30 W9        30.33R
Atlantic City  FAIR      61  26  26 NW12      30.31S
Wrightstown    FAIR      59  26  29 W10       30.27
Toms River     FAIR      59  27  29 NW12      30.30S
Belmar         FAIR      58  23  26 W7        30.29F
$$

PAZ047>061-062-071-212300-
Eastern Pennsylvania

CITY           SKY/WX    TMP DP  RH WIND       PRES   REMARKS
Philadelphia   CLOUDY    59  25  27 W12       30.32S
Allentown      FAIR      61  23  23 W12       30.28F
Scranton       FAIR      56  20  24 NW9       30.31R
$$

CTZ002-004>006-009-010-012-RIZ004-006-007-MAZ004-011-015-212300-
Southern New England

 In CT

CITY           SKY/WX    TMP DP  RH WIND       PRES   REMARKS
Bradley Intl   FAIR      59  20  22 NW15G24   30.23R
Hartford       FAIR      59  19  21 NW14G20   30.23R
Danbury        FAIR      58  18  21 NW15G22   30.25S
Wtrbury/Oxford FAIR      56  19  23 NW12G21   30.24R
Norwalk Harbor   N/A     57 N/A N/A NW7         N/A
Bridgeport     FAIR      61  16  17 NW14      30.23S
Meriden        FAIR      59  18  20 NW12G23   30.23R
New Haven      FAIR      61  19  19 NW8       30.23S
Chester        FAIR      61  16  17 NW13G20   30.22S
Groton         FAIR      54  29  38 W16       30.21S
Willimantic    FAIR      59  21  23 N13G18    30.21S

 In RI

CITY           SKY/WX    TMP DP  RH WIND       PRES   REMARKS
Providence     FAIR      60  19  20 NW12G22   30.20S
Block Island   FAIR      48  36  63 SW16G26   30.23S
Westerly       FAIR      54  31  41 W13G21    30.22S

In MA

CITY           SKY/WX    TMP DP  RH WIND       PRES   REMARKS
Boston         FAIR      59  17  19 NW15G21   30.19S
Worcester      FAIR      54  20  26 NW13G18   30.19S
Westfield      FAIR      58  19  22 W14G21    30.22S
Provincetown   FAIR      49  29  46 S13       30.22S
Nantucket      FAIR      46  37  71 SW9       30.24F
$$

ANZ330-335-338-340-345-350-353-355-212300-
Coastal Marine Observations


STATION/POSITION TIME  SKY/WX   TEMP    WIND        PRES    VSBY  WAVE
                                AIR SEA DIR/SP/G                  HT/PER
                 (UTC)          (F)     (DEG/KT/KT) (MB)    (MI)  (FT/S)
NY Harb Entrance 2150            46 45  190/ 16/ 19 1025.5          2/ 3
20 S Fire Island 2150            46 43  220/ 16/ 17 1025.6          2/ 3
23 SSW Montauk P 2150            46 43  240/ 16/ 17 1024.5          2/ 4
15 E Barnegat Li 2130               45                N/A           2/ 3
Hudson Canyon    2150            45 45  240/ 12/ 14 1026.5          2/ 4
Kings Point      2142            56 45  350/  7/ 10 1025.5
Execution Rocks  NOT AVBL
Western LI Sound NOT AVBL
Central LI Sound 2145            49     230/ 10/ 14   N/A           1
Robbins Reef     2142            60     290/ 13/ 15 1025.2
$$


>>>>>>>>>>>>>>>>>>>>>>>>>>>> KEY <<<<<<<<<<<<<<<<<<<<<<<<<<<
>                                                          <
>     SKY/WX - Sky Condition/Present Weather               <
>     TMP    - Temperature in Fahrenheit                   <
>     DP     - Dew Point in Fahrenheit                     <
>     RH     - Relative Humidity in Percent                <
>     WIND   - Direction (from) and Speed in MPH           <
>     PRES   - Mean Sea Level Pressure (inches of Hg)      <
>     WCI    - Wind Chill Index                            <
>     VSB    - Visibility in Miles                         <
>     HX     - Heat Index                                  <
>     TC     - Temperature in Celsius                      <
>     VRB    - Varibale Wind Direction                     <
>                                                          <
>>>>>>>>>>>>>>>>>>>>>>>>>>>> KEY <<<<<<<<<<<<<<<<<<<<<<<<<<<




USA.gov is the U.S. government's official web portal to all federal, state and local government web resources and services.